(105722) = 2000 SF80 = 2002 GF131

Discovered at Socorro on 2000-09-24 by LINEAR.

Orbit

Orbit type: Main Belt

Note: WebGL enabled browser required.

epoch2024-03-31.0
epoch JD2460400.5
perihelion date2023-07-19.11199
perihelion JD2460144.61199
argument of perihelion (°)264.52765
ascending node (°)182.84506
inclination (°)1.83618
eccentricity0.1973849
perihelion distance (AU)1.9204446
Tisserand w.r.t. Jupiter3.5
ΔV w.r.t. Earth (km/sec)8.7
semimajor axis (AU)2.3927344
mean anomaly (°)68.14156
mean daily motion (°/day)0.26629450
aphelion distance (AU)2.865
period (years)3.7
P-vector [x]0.04586418
P-vector [y]0.92873669
P-vector [z]0.36789216
Q-vector [x]-0.99894642
Q-vector [y]0.04322689
Q-vector [z]0.01541065
absolute magnitude16.7
phase slope0.15
uncertainty0
referenceMPEC 2024-F14
observations used823
oppositions16
arc length (days)9462
first opposition used1998
last opposition used2024
residual rms (arc-secs)0.71
perturbers coarse indicatorM-v
perturbers precise indicator003Ek
first observation date used1998-04-21.0
last observation date used2024-03-17.0
computer nameMPCLINUX
JD of orbit computation2456465.485196
perihelion JD uncertainty (days)6.5380E-05
argument of perihelion uncertainty (°)1.2544E-04
ascending node uncertainty (°)1.2402E-04
inclination uncertainty (°)5.6247E-06
eccentricity uncertainty 3.7678E-08
perihelion distance uncertainty (AU)8.6552E-08
Minimum Orbit Intersection Distances (in AU)
for orbit epoch: 2460400.5, reference: E2024-G77
Mercury1.6142
Venus1.2016
Earth0.93825
Mars0.34552
Jupiter2.35076
Saturn7.12108
Uranus16.0566
Neptune27.4696

Observations

838 total observations over interval: 1998 03 04.25818 – 2024 03 17.475278
These data are available for download (format description).

Date (UT) J2000 RA J2000 Dec Magn Location Ref
1998 03 04.25818 10 30 06.56 +07 58 15.1 18.9   704 – Lincoln Laboratory ETS, New Mexico MPS 59761
1998 03 04.27832 10 30 05.38 +07 58 24.5 19.2   704 – Lincoln Laboratory ETS, New Mexico MPS 59761
1998 03 04.29844 10 30 04.25 +07 58 29.5 19.0   704 – Lincoln Laboratory ETS, New Mexico MPS 59761
1998 03 04.33880 10 30 01.79 +07 58 45.5 19.3   704 – Lincoln Laboratory ETS, New Mexico MPS 59761
1998 04 21.14454 10 14 39.76 +10 27 09.9 20.8 V 691 – Steward Observatory, Kitt Peak-Spacewatch MPS 59761
1998 04 21.16784 10 14 40.20 +10 27 08.7 20.3 V 691 – Steward Observatory, Kitt Peak-Spacewatch MPS 59761
1998 04 21.19429 10 14 40.77 +10 27 07.0 21.1 V 691 – Steward Observatory, Kitt Peak-Spacewatch MPS 59761
2000 09 24.35157 00 39 37.67 +04 02 14.9 19.1   704 – Lincoln Laboratory ETS, New Mexico MPS 19891
2000 09 24.36682 00 39 36.89 +04 02 08.8 19.2   704 – Lincoln Laboratory ETS, New Mexico MPS 19891
2000 09 24.38177 00 39 36.07 +04 02 01.9 19.2   704 – Lincoln Laboratory ETS, New Mexico MPS 19891
2000 09 24.39676 00 39 35.33 +04 01 56.5 19.4   704 – Lincoln Laboratory ETS, New Mexico MPS 19891
2000 09 26.26427 00 37 58.22 +03 49 27.8 18.7   704 – Lincoln Laboratory ETS, New Mexico MPS 19891
2000 09 26.27938 00 37 57.39 +03 49 21.8 19.3   704 – Lincoln Laboratory ETS, New Mexico MPS 19891
2000 09 26.29566 00 37 56.45 +03 49 13.6 19.8   704 – Lincoln Laboratory ETS, New Mexico MPS 19891
2000 09 26.32432 00 37 54.93 +03 49 02.2 18.7 R 699 – Lowell Observatory-LONEOS MPS 26675
2000 09 26.34277 00 37 54.03 +03 48 56.0   699 – Lowell Observatory-LONEOS MPS 26675
2000 09 26.36122 00 37 52.87 +03 48 48.2   699 – Lowell Observatory-LONEOS MPS 26675
2000 09 26.37966 00 37 51.90 +03 48 39.6   699 – Lowell Observatory-LONEOS MPS 26675
2000 09 27.24977 00 37 06.09 +03 42 45.1 19.0   704 – Lincoln Laboratory ETS, New Mexico MPS 19891
2000 09 27.26488 00 37 05.22 +03 42 38.2 19.2   704 – Lincoln Laboratory ETS, New Mexico MPS 19891
2000 09 27.27996 00 37 04.39 +03 42 32.4 19.1   704 – Lincoln Laboratory ETS, New Mexico MPS 19891
2000 09 27.31012 00 37 02.69 +03 42 20.0 18.9   704 – Lincoln Laboratory ETS, New Mexico MPS 19891
2000 10 01.18252 00 33 33.40 +03 15 27.1 19.4   704 – Lincoln Laboratory ETS, New Mexico MPS 19891
2000 10 01.19760 00 33 32.52 +03 15 21.6 18.3   704 – Lincoln Laboratory ETS, New Mexico MPS 19891
2000 10 01.21267 00 33 31.66 +03 15 15.3 18.2   704 – Lincoln Laboratory ETS, New Mexico MPS 19891
2000 10 01.22775 00 33 30.79 +03 15 08.9 18.0   704 – Lincoln Laboratory ETS, New Mexico MPS 19891
2000 10 01.24286 00 33 29.92 +03 15 02.6 17.7   704 – Lincoln Laboratory ETS, New Mexico MPS 19891
2000 10 01.31248 00 33 26.13 +03 14 33.4 18.6 R 699 – Lowell Observatory-LONEOS MPS 21196
2000 10 01.33244 00 33 24.98 +03 14 24.3   699 – Lowell Observatory-LONEOS MPS 21196
2000 10 01.35241 00 33 23.63 +03 14 18.4   699 – Lowell Observatory-LONEOS MPS 21196
2000 10 01.37246 00 33 22.62 +03 14 08.7   699 – Lowell Observatory-LONEOS MPS 21196
2000 10 02.30360 00 32 31.64 +03 07 35.1 18.9   704 – Lincoln Laboratory ETS, New Mexico MPS 19891
2000 10 02.31919 00 32 30.67 +03 07 28.3 19.1   704 – Lincoln Laboratory ETS, New Mexico MPS 19891
2000 10 02.33535 00 32 29.84 +03 07 22.0 19.2   704 – Lincoln Laboratory ETS, New Mexico MPS 19891
2000 10 02.35086 00 32 28.93 +03 07 16.2 19.1   704 – Lincoln Laboratory ETS, New Mexico MPS 19891
2000 10 02.36646 00 32 28.00 +03 07 09.9 19.2   704 – Lincoln Laboratory ETS, New Mexico MPS 19891
2002 04 05.28194 13 20 11.10 -07 32 44.7 19.4 R 699 – Lowell Observatory-LONEOS MPS 57538
2002 04 05.29519 13 20 10.29 -07 32 39.7   699 – Lowell Observatory-LONEOS MPS 57538
2002 04 05.30843 13 20 09.67 -07 32 34.7   699 – Lowell Observatory-LONEOS MPS 57538
2002 04 05.32209 13 20 08.73 -07 32 28.5   699 – Lowell Observatory-LONEOS MPS 57538
2002 04 07.14140 13 18 25.76 -07 20 33.6 19.1 R 807 – Cerro Tololo Observatory, La Serena MPS 57538
2002 04 07.20167 13 18 22.21 -07 20 10.2   807 – Cerro Tololo Observatory, La Serena MPS 57538
2002 04 12.30525 13 13 32.75 -06 47 07.3 19.3   704 – Lincoln Laboratory ETS, New Mexico MPS 57538
2002 04 12.31983 13 13 31.92 -06 47 01.3 19.6   704 – Lincoln Laboratory ETS, New Mexico MPS 57538
2002 04 12.33567 13 13 31.05 -06 46 56.0 19.8   704 – Lincoln Laboratory ETS, New Mexico MPS 57538
2002 04 12.35027 13 13 30.17 -06 46 49.8 19.7   704 – Lincoln Laboratory ETS, New Mexico MPS 57538
2002 04 14.27141 13 11 42.95 -06 34 32.5 19.1   704 – Lincoln Laboratory ETS, New Mexico MPS 57538
2002 04 14.28547 13 11 42.13 -06 34 27.1 19.6   704 – Lincoln Laboratory ETS, New Mexico MPS 57538
2002 04 14.29953 13 11 41.37 -06 34 21.3 19.5   704 – Lincoln Laboratory ETS, New Mexico MPS 57538
2002 04 14.31361 13 11 40.53 -06 34 16.1 19.2   704 – Lincoln Laboratory ETS, New Mexico MPS 57538
2002 04 14.32771 13 11 39.68 -06 34 10.8 19.3   704 – Lincoln Laboratory ETS, New Mexico MPS 57538
2004 09 17.39994 04 29 48.09 +20 18 11.0 20.5 V 291 – LPL/Spacewatch II MPS 120363
2004 09 17.42725 04 29 49.92 +20 18 13.2 20.5 V 291 – LPL/Spacewatch II MPS 120363
2004 09 17.45293 04 29 51.63 +20 18 14.9 20.5 V 291 – LPL/Spacewatch II MPS 120363
2004 10 15.46164 04 51 51.91 +20 15 53.5 19.0 R G96 – Mt. Lemmon Survey MPS 120363
2004 10 15.46777 04 51 52.01 +20 15 52.9 18.9 R G96 – Mt. Lemmon Survey MPS 120363
2004 10 15.47388 04 51 52.13 +20 15 52.6 19.0 R G96 – Mt. Lemmon Survey MPS 120363
2004 10 15.47998 04 51 52.24 +20 15 52.1 18.7 R G96 – Mt. Lemmon Survey MPS 120363
2004 11 07.33287 04 50 02.85 +19 32 06.2 19.4   704 – Lincoln Laboratory ETS, New Mexico MPS 119218
2004 11 07.34494 04 50 02.43 +19 32 04.6 19.3   704 – Lincoln Laboratory ETS, New Mexico MPS 119218
2004 11 07.35701 04 50 02.13 +19 32 03.0 19.3   704 – Lincoln Laboratory ETS, New Mexico MPS 119218
2004 11 10.46927 04 48 16.95 +19 23 52.4 19.0 V 691 – Steward Observatory, Kitt Peak-Spacewatch MPS 119218
2004 11 10.49500 04 48 15.93 +19 23 48.0 19.0 V 691 – Steward Observatory, Kitt Peak-Spacewatch MPS 119218
2004 11 10.52108 04 48 14.92 +19 23 43.6 19.0 V 691 – Steward Observatory, Kitt Peak-Spacewatch MPS 119218
2004 11 13.32683 04 46 24.36 +19 16 03.0 18.3 R 703 – Catalina Sky Survey MPS 119789
2004 11 13.33566 04 46 23.95 +19 16 01.6 18.4 R 703 – Catalina Sky Survey MPS 119789
2004 11 13.34455 04 46 23.59 +19 15 59.1 17.8 R 703 – Catalina Sky Survey MPS 119789
2004 11 13.35339 04 46 23.07 +19 15 58.9 18.3 R 703 – Catalina Sky Survey MPS 119789
2004 12 02.18723 04 29 30.85 +18 21 23.1 18.0 R 699 – Lowell Observatory-LONEOS MPS 124582
2004 12 02.20674 04 29 29.66 +18 21 19.7   699 – Lowell Observatory-LONEOS MPS 124582
2004 12 02.22623 04 29 28.40 +18 21 16.2   699 – Lowell Observatory-LONEOS MPS 124582
2004 12 02.24570 04 29 27.23 +18 21 14.0   699 – Lowell Observatory-LONEOS MPS 124582
2004 12 02.41855 04 29 16.43 +18 20 43.8 18.4   644 – Palomar Mountain/NEAT MPS 120363
2004 12 02.44169 04 29 15.00 +18 20 39.9 18.6   644 – Palomar Mountain/NEAT MPS 120363
2004 12 02.46843 04 29 13.35 +18 20 35.0 18.3   644 – Palomar Mountain/NEAT MPS 120363
2004 12 08.30111 04 23 32.47 +18 05 14.3 18.1   704 – Lincoln Laboratory ETS, New Mexico MPS 121115
2004 12 08.31522 04 23 31.65 +18 05 13.2 18.4   704 – Lincoln Laboratory ETS, New Mexico MPS 121115
2004 12 08.33947 04 23 30.10 +18 05 09.5 18.4   704 – Lincoln Laboratory ETS, New Mexico MPS 121115
2004 12 08.35646 04 23 29.12 +18 05 06.4 18.1   704 – Lincoln Laboratory ETS, New Mexico MPS 121115
2004 12 08.37051 04 23 28.32 +18 05 03.9 18.3   704 – Lincoln Laboratory ETS, New Mexico MPS 121115
2004 12 10.27007 04 21 42.06 +18 00 32.7 18.3   704 – Lincoln Laboratory ETS, New Mexico MPS 121606
2004 12 10.28275 04 21 41.33 +18 00 30.7 18.5   704 – Lincoln Laboratory ETS, New Mexico MPS 121606
2004 12 10.32030 04 21 39.13 +18 00 25.3 18.3   704 – Lincoln Laboratory ETS, New Mexico MPS 121606
2004 12 14.90646 04 17 38.49 +17 50 44.6 18.4 R 599 – Campo Imperatore-CINEOS MPS 121606
2004 12 14.92964 04 17 37.28 +17 50 41.9 18.3 R 599 – Campo Imperatore-CINEOS MPS 121606
2004 12 15.83719 04 16 53.23 +17 49 01.3 18.2 R 599 – Campo Imperatore-CINEOS MPS 121606
